Find Kosmos-1168

NORAD ID: 11735 Int'l Des: 1980-022 Owner: VMF Country: SU operational
LEOCIRCULARPOLAR

实时位置

正在加载3D地球...

关于 Kosmos-1168

正在加载描述...

即将过境

Passes for default location (London). Set your location on the main map for personalized predictions.

高度历史

Loading altitude history...

两行轨道根数

1 11735U 80022A 26106.82248652 .00000064 00000-0 50700-4 0 9997
2 11735 82.9455 319.8950 0035637 169.7918 202.0637 13.75247067311728
Epoch: Apr 16, 2026 • Age: 15 hours

当前状态

高度 968.9 km
速度 7.38 km/s
星下点 -24.65°S, 137.46°E
发射日期 Mar 17, 1980
运行时间 46 years
类型 other

技术详情

分类 Payload
质量 800.00 kg
干质量 800.00 kg
总质量 800.00 kg
长度 5.00 m
直径 2.10 m
跨度 17.00 m
形状 Cyl + Ant
制造商 OAZ
平台类型 KAUR-1 11F643
阶段状态 In Orbit
所有者/国家 VMF/SU

Most Searched